Regional Weather Roundup
Issued by NWS

Home | Current Version | Previous Version | Graphics & Text | Print | Product List | Glossary On
Versions: 1 2 3 4 5 6 7 8 9 10 11 12 13 14 15 16 17 18 19 20 21 22 23 24 25 26 27 28
000
ASUS45 KTFX 300010
RWRMT
MONTANA REGIONAL WEATHER ROUNDUP
NATIONAL WEATHER SERVICE GREAT FALLS MT
600 PM MDT SUN MAY 29 2016

NOTE: "FAIR" INDICATES FEW OR NO CLOUDS BELOW 12000 FEET WITH NO
SIGNIFICANT WEATHER AND/OR OBSTRUCTIONS TO VISIBILITY.

MTZ001>007-043-300100-
WEST OF THE DIVIDE

CITY           SKY/WX    TMP DP  RH WIND       PRES   REMARKS
KALISPELL      MOSUNNY   67  45  45 SE9       29.92F
MISSOULA       CLOUDY    66  46  48 SE8       29.95S
BUTTE          CLOUDY    65  25  22 W8        30.00F
MULLAN PASS    MOSUNNY   52  32  46 SW9       30.04S
ANACONDA         N/A     66  30  26 W6        29.98F
DEER LODGE       N/A     63  39  42 N8        29.98F
EUREKA           N/A     70  34  26 SW12      29.90R
HAMILTON         N/A     70  39  32 N15       29.93F
LIBBY            N/A     68  36  30 SW7       29.91S
$$

MTZ008-052>055-300100-
SOUTHWEST MONTANA

CITY           SKY/WX    TMP DP  RH WIND       PRES   REMARKS
BOZEMAN        CLOUDY    71  38  29 NW6       29.96F
DILLON         CLOUDY    69  28  21 SW12      29.97F
W YELLOWSTONE  PTSUNNY   63  27  25 SW13G22   30.09S
ENNIS          MOSUNNY   66  34  30 S13       30.05S
$$

MTZ009-010-012-014-046-048-049-054-300100-
EAST SLOPES AND CENTRAL MONTANA

CITY           SKY/WX    TMP DP  RH WIND       PRES   REMARKS
CUT BANK         N/A     59  39  47 SW18      29.94F
GREAT FALLS    CLOUDY    66  37  34 SW12      29.94S
MALMSTROM AFB  CLOUDY    68  35  30 W10       29.94S
HELENA         PTSUNNY   69  39  33 N13       29.96R
CHOTEAU          N/A     64  39  39 W3        29.97F
$$

MTZ011-013-016-021-045-047-050-051-300100-
NORTH CENTRAL MONTANA

CITY           SKY/WX    TMP DP  RH WIND       PRES   REMARKS
HAVRE          PTSUNNY   70  40  33 SW7       29.89F
LEWISTOWN      SUNNY     71  37  28 N6        29.96F
N BAR RANCH      N/A     68  36  30 CALM      29.99F
CHINOOK          N/A     72  36  26 W6        29.90S
$$

MTZ017>020-022>027-061-062-300100-
NORTHEAST MONTANA

CITY           SKY/WX    TMP DP  RH WIND       PRES   REMARKS
GLASGOW        SUNNY     74  37  26 W12       29.90F
JORDAN           N/A     75  37  25 CALM      29.92F
SIDNEY         SUNNY     77  39  25 W13       29.91F
WOLF POINT     SUNNY     76  36  23 SW12      29.92S
POPLAR           N/A     75  37  25 W14       29.92S
$$

MTZ028>42-056>058-300100-
SOUTHCENTRAL AND SOUTHEAST MONTANA

CITY           SKY/WX    TMP DP  RH WIND       PRES   REMARKS
BAKER          CLOUDY    73  41  31 S5        29.97F
BILLINGS       MOSUNNY   76  36  23 E7        29.93F
LIVINGSTON     CLOUDY    72  33  24 NW3       29.95F
MILES CITY     SUNNY     78  38  23 SW7       29.93F
FORSYTH          N/A     77  37  24 NW5       29.92F
$$

REGIONAL REPORTS...DAKOTAS

CITY           SKY/WX    TMP DP  RH WIND       PRES   REMARKS
WILLISTON      SUNNY     77  34  21 W9        29.92F
MINOT          SUNNY     77  38  24 W9        29.92F
DICKINSON      SUNNY     74  31  20 NW9       29.93S
BEACH            N/A     75  36  23 W13G20    29.98S
CROSBY           N/A     72  37  28 W17       29.93S
WATFORD CITY     N/A     75  34  22 W13G20    29.93S
BISMARCK       MOSUNNY   77  44  30 NW8G18    29.93F
GRAND FORKS    MOSUNNY   75  49  39 NW13      29.89F
FARGO          SUNNY     78  42  27 NW14      29.91F
BUFFALO SD       N/A     77  42  28 SE8       29.90F
RAPID CITY     SUNNY     74  51  44 E9        29.97F
$$

REGIONAL REPORTS...WYOMING/IDAHO/WASHINGTON

CITY           SKY/WX    TMP DP  RH WIND       PRES   REMARKS
GILLETTE       SUNNY     74  36  25 CALM      29.99F
SHERIDAN       SUNNY     75  42  30 SE8       29.95F
BUFFALO WY     SUNNY     73  41  31 E9        30.00F
CODY           SUNNY     72  30  21 SW13G20   29.98S
YELLOWSTONE LA   N/A     58  22  24 W10G16    30.17S
IDAHO FALLS    LGT RAIN  73  39  29 SW14      30.00F
SALMON         MOSUNNY   70  37  30 N3        29.91F
BOISE          CLOUDY    79  31  17 N7        29.93F
SPOKANE        MOSUNNY   71  32  23 SW21G29   29.95S
$$

REGIONAL REPORTS...ALBERTA

CITY           SKY/WX    TMP DP  RH WIND       PRES   REMARKS
EDMONTON       MOSUNNY   61  43  51 NE13      29.85R
CALGARY        PTSUNNY   59  36  41 NW20G33   29.84R
LETHBRIDGE     PTSUNNY   66  37  34 W5G17     29.86F
MEDICINE HAT   PTSUNNY   72  37  28 SW14G25   29.84S
WATERTON GATE    N/A     61  34  36 SW13G18     N/A
MILK RIVER       N/A     64  41  42 SW18G28     N/A
$$

REGIONAL REPORTS...SASKATCHEWAN

CITY           SKY/WX    TMP DP  RH WIND       PRES   REMARKS
SWIFT CURRENT  SUNNY     68  37  32 W12G21    29.87S
REGINA         MOSUNNY   68  41  37 SW15      29.88S
SASKATOON      MOSUNNY   68  45  42 N9        29.87S
CYPRESS HILLS    N/A     63  30  29 W12G18      N/A
VAL MARIE        N/A     72  32  23 W14G22      N/A
ROCKGLEN         N/A     64  39  39 W14         N/A
ASSINIBOIA       N/A     68  43  40 E10         N/A
$$




USA.gov is the U.S. government's official web portal to all federal, state and local government web resources and services.